Location: Augustenthal
(51.7167°N, 10.2833°E)
Time: 12:43:58
(UTC+00:00)

Cosmos 1656 Rocket - Pass Details

Date: 18 May 2021
Orbit: 794 x 848 km, 71.1° (Epoch: 19 June)

Event Time Altitude Azimuth Distance (km) Brightness Sun altitude
Exits shadow 21:46:49 19° 192° (SSW) 1,825 5.0 -16.0°
Maximum altitude 21:50:42 66° 115° (ESE) 892 3.6 -16.2°
Drops below altitude 10° 21:56:13 10° 34° (NE) 2,437 6.6 -16.5°
Sets 21:58:41 0° 32° (NNE) 3,382 7.4 -16.6°
